{"data":{"norad_id":42698,"intl_designator":"2017-025A","name":"INMARSAT 5-F4","alt_names":[],"object_type":"PAYLOAD","status":"ACTIVE","operator":null,"country":"IM","launch_date":"2017-05-15","launch_site_code":"AFETR","launch_vehicle":null,"mission":null,"orbit_class":"UNKNOWN","rcs_meters":null,"size_class":null,"mass_kg":null,"dimensions":null,"purposes":["comms"],"wikipedia_slug":null,"has_3d_model":false,"image_url":null,"decayed_at":null,"tle_current":{"epoch":"2026-05-25T04:00:45.715392Z","epoch_age_seconds":57700,"freshness":"FRESH","line1":"1 42698U 17025A   26145.16719578  .00000073  00000+0  00000+0 0  9994","line2":"2 42698   0.0174 333.0920 0000308  66.2382 320.1197  1.00272710 33044","mean_motion":1.0027271,"eccentricity":3.08e-5,"inclination_deg":0.0174,"raan_deg":333.092,"arg_perigee_deg":66.2382,"mean_anomaly_deg":320.1197,"bstar":0,"rev_number":3304,"period_min":1436.083656261,"perigee_km":35785.036986348,"apogee_km":35787.634317863,"semimajor_km":42164.472652106,"source":"CELESTRAK","updated_at":"2026-05-25T13:38:14.044190Z"}}}